N3AVN Weather Reports


time (UTC)temp
C
wind
direction
speed
KPH
gust
KPH
rain 1hr
cm
rain 24hr
cm
rain mn
cm
humidity
%
barometer
mb
20260506231255 15 237 6.4 8.0 0.00 0.25 0.25 99 1004.5
20260506230752 15 180 1.6 9.7 0.00 0.25 0.25 99 1004.6
20260506230243 15 144 0.0 9.7 0.00 0.25 0.25 99 1004.7
20260506225739 15 201 3.2 8.0 0.00 0.25 0.25 99 1004.7
20260506225236 15 16 3.2 9.7 0.00 0.25 0.25 99 1004.6
20260506224732 15 221 3.2 8.0 0.00 0.25 0.25 99 1004.6
20260506224230 15 226 6.4 9.7 0.00 0.25 0.25 99 1004.5
20260506223726 15 90 3.2 12.9 0.00 0.25 0.25 99 1004.3
20260506223222 15 163 3.2 9.7 0.00 0.25 0.25 99 1004.5
20260506222714 15 66 1.6 11.3 0.00 0.25 0.25 99 1004.4
20260506222209 15 251 6.4 6.4 0.00 0.25 0.25 99 1004.3
20260506221707 15 36 3.2 8.0 0.00 0.25 0.25 99 1004.6
20260506221205 15 87 4.8 17.7 0.00 0.25 0.25 99 1004.5
20260506220702 15 105 3.2 8.0 0.00 0.25 0.25 98 1004.6
20260506220157 15 277 0.0 4.8 0.00 0.25 0.25 98 1004.7
20260506215654 15 81 0.0 3.2 0.05 0.25 0.25 98 1004.8
20260506215149 15 148 8.0 8.0 0.05 0.25 0.25 98 1004.6
20260506214646 15 184 3.2 8.0 0.05 0.23 0.23 98 1004.7
20260506214143 15 111 1.6 12.9 0.18 0.23 0.23 98 1004.5
20260506213642 15 15 3.2 9.7 0.30 0.23 0.23 98 1004.7
20260506213138 15 177 3.2 9.7 0.13 0.20 0.20 97 1004.7
20260506212635 15 319 0.0 6.4 0.00 0.18 0.18 97 1004.7
20260506212130 15 77 3.2 6.4 0.00 0.18 0.18 97 1004.5
20260506211626 15 81 0.0 8.0 0.00 0.18 0.18 98 1004.7
20260506211123 15 187 1.6 9.7 0.00 0.18 0.18 98 1004.6
20260506210620 15 232 9.7 9.7 0.00 0.18 0.18 98 1004.7
20260506210116 15 217 8.0 11.3 0.00 0.18 0.18 98 1004.7
20260506205613 15 197 3.2 9.7 0.00 0.18 0.18 98 1004.7
20260506205108 15 227 0.0 6.4 0.00 0.18 0.18 98 1004.9
20260506204606 15 321 0.0 14.5 0.00 0.18 0.18 98 1004.6
20260506204103 15 26 1.6 11.3 0.00 0.18 0.18 98 1004.8
20260506203601 15 286 1.6 11.3 0.00 0.18 0.18 98 1004.9
20260506203057 15 233 6.4 16.1 0.05 0.18 0.18 97 1004.9
20260506202555 15 180 1.6 9.7 0.13 0.18 0.18 97 1004.9
20260506202051 15 87 4.8 4.8 0.13 0.18 0.18 97 1005.0
20260506201549 15 95 3.2 6.4 0.13 0.15 0.15 97 1004.9
20260506201045 15 215 8.0 12.9 0.13 0.15 0.15 97 1005.1
20260506200541 15 311 3.2 14.5 0.05 0.15 0.15 96 1005.1
20260506200038 15 111 6.4 9.7 0.00 0.13 0.13 96 1005.3
20260506195535 15 94 4.8 9.7 0.00 0.13 0.13 96 1005.5
20260506195032 15 105 3.2 4.8 0.00 0.13 0.13 95 1005.3
20260506194529 15 14 0.0 9.7 0.00 0.13 0.13 95 1005.4
20260506194026 15 97 0.0 9.7 0.00 0.13 0.13 95 1005.3
20260506193523 15 259 3.2 8.0 0.00 0.13 0.13 95 1005.5
20260506193020 15 309 3.2 9.7 0.00 0.13 0.13 95 1005.5
20260506192517 15 215 1.6 9.7 0.00 0.13 0.13 95 1005.4
20260506192013 15 90 4.8 9.7 0.00 0.13 0.13 95 1005.6
20260506191510 15 105 0.0 6.4 0.00 0.13 0.13 95 1005.7
20260506191006 15 181 12.9 14.5 0.00 0.13 0.13 95 1005.8
20260506190503 15 275 6.4 9.7 0.00 0.13 0.13 95 1006.0
20260506185959 15 121 0.0 14.5 0.00 0.13 0.13 95 1005.6
20260506185457 15 228 3.2 9.7 0.00 0.13 0.13 95 1005.8
20260506184954 15 143 9.7 14.5 0.05 0.13 0.13 95 1006.0
20260506184452 15 226 8.0 16.1 0.05 0.13 0.13 95 1005.9
20260506183948 15 180 1.6 6.4 0.00 0.13 0.13 96 1005.9
20260506183443 15 108 9.7 11.3 0.00 0.13 0.13 96 1006.0
20260506182941 15 114 4.8 9.7 0.05 0.13 0.13 96 1005.9
20260506182438 15 57 8.0 9.7 0.05 0.10 0.10 95 1006.0
20260506181935 15 289 1.6 12.9 0.05 0.10 0.10 95 1005.9
20260506181433 15 67 9.7 9.7 0.00 0.10 0.10 95 1005.9
20260506180929 15 270 0.0 12.9 0.00 0.10 0.10 95 1006.0
20260506180426 15 236 4.8 11.3 0.05 0.10 0.10 95 1006.1
20260506175923 15 57 0.0 11.3 0.05 0.10 0.10 95 1006.1
20260506175420 15 227 9.7 16.1 0.00 0.10 0.10 94 1005.9
20260506174916 15 75 16.1 17.7 0.05 0.10 0.10 94 1006.1
20260506174414 15 98 6.4 14.5 0.05 0.08 0.08 93 1006.0
20260506173911 15 139 3.2 8.0 0.18 0.08 0.08 93 1006.1
20260506173408 15 211 4.8 8.0 0.18 0.08 0.08 93 1006.6
20260506172905 16 165 6.4 11.3 0.13 0.05 0.05 92 1006.3
20260506172401 16 86 8.0 11.3 0.13 0.05 0.05 91 1006.6
20260506171859 16 225 4.8 8.0 0.13 0.03 0.03 89 1006.6
20260506171356 16 187 1.6 16.1 0.13 0.03 0.03 87 1006.7
20260506170854 17 164 6.4 16.1 0.05 0.00 0.00 86 1007.0
20260506170349 17 199 4.8 9.7 0.00 0.00 0.00 85 1007.0
20260506165843 17 180 0.0 8.0 0.00 0.00 0.00 83 1006.7
20260506165340 18 175 9.7 17.7 0.00 0.00 0.00 81 1007.2
20260506164831 18 90 4.8 16.1 0.00 0.00 0.00 80 1007.0
20260506164328 18 15 3.2 16.1 0.00 0.00 0.00 79 1007.0
20260506163826 18 275 9.7 9.7 0.00 0.00 0.00 77 1006.8
20260506163320 18 90 0.0 14.5 0.00 0.00 0.00 77 1006.9
20260506162815 18 81 12.9 19.3 0.00 0.00 0.00 77 1006.9
20260506162313 19 146 8.0 14.5 0.00 0.00 0.00 76 1006.7
20260506161805 20 119 6.4 19.3 0.00 0.00 0.00 74 1006.8
20260506161302 20 51 4.8 12.9 0.00 0.00 0.00 74 1006.8
20260506160800 20 328 6.4 16.1 0.00 0.00 0.00 73 1006.7
20260506160256 20 123 3.2 16.1 0.00 0.00 0.00 73 1006.8
20260506155755 20 240 0.0 4.8 0.00 0.00 0.00 72 1006.8
20260506155251 20 124 8.0 19.3 0.00 0.00 0.00 72 1007.2
20260506153358 20 156 0.0 16.1 0.00 0.00 0.00 74 1007.3
20260506152855 20 209 8.0 12.9 0.00 0.00 0.00 73 1007.3
20260506152352 20 139 6.4 8.0 0.00 0.00 0.00 74 1007.3
20260506151851 20 229 8.0 12.9 0.00 0.00 0.00 73 1007.4
20260506151347 20 11 0.0 4.8 0.00 0.00 0.00 74 1007.2
20260506150844 20 7 0.0 11.3 0.00 0.00 0.00 75 1007.5
20260506150341 20 164 0.0 11.3 0.00 0.00 0.00 75 1007.4
20260506145837 19 244 4.8 17.7 0.00 0.00 0.00 76 1007.2
20260506145334 19 75 0.0 12.9 0.00 0.00 0.00 76 1007.2
20260506144832 19 115 11.3 12.9 0.00 0.00 0.00 76 1007.5
20260506144328 19 125 3.2 8.0 0.00 0.00 0.00 76 1007.5
20260506143827 18 222 9.7 16.1 0.00 0.00 0.00 77 1007.6
20260506143323 18 342 1.6 19.3 0.00 0.00 0.00 77 1007.8
20260506142821 18 94 4.8 4.8 0.00 0.00 0.00 77 1007.6
20260506142319 18 334 6.4 6.4 0.00 0.00 0.00 77 1007.6
20260506141817 18 214 6.4 19.3 0.00 0.00 0.00 77 1007.8
20260506141315 18 157 4.8 11.3 0.00 0.00 0.00 77 1007.9
20260506140813 18 226 8.0 8.0 0.00 0.00 0.00 77 1007.7
20260506140309 18 205 0.0 6.4 0.00 0.00 0.00 79 1008.0
20260506135806 18 60 3.2 8.0 0.00 0.00 0.00 80 1007.9
20260506135305 17 344 3.2 12.9 0.00 0.00 0.00 80 1007.7
20260506134759 17 241 8.0 8.0 0.00 0.00 0.00 81 1007.8
20260506134256 17 261 0.0 8.0 0.00 0.00 0.00 81 1007.5
20260506133753 17 60 8.0 8.0 0.00 0.00 0.00 81 1007.5
20260506133250 17 147 3.2 4.8 0.00 0.00 0.00 82 1007.7
20260506132746 17 192 1.6 16.1 0.00 0.00 0.00 82 1007.5
20260506132244 17 354 1.6 19.3 0.00 0.00 0.00 83 1007.5
20260506131742 17 185 0.0 9.7 0.00 0.00 0.00 83 1007.6
20260506131237 16 117 14.5 14.5 0.00 0.00 0.00 83 1007.8
20260506130734 16 327 0.0 8.0 0.00 0.00 0.00 84 1008.1
20260506130231 16 265 3.2 9.7 0.00 0.00 0.00 85 1007.9
20260506125729 16 116 6.4 16.1 0.00 0.00 0.00 86 1008.0
20260506125227 16 34 0.0 8.0 0.00 0.00 0.00 86 1007.8
20260506124725 16 135 8.0 8.0 0.00 0.00 0.00 86 1007.8
20260506124223 16 111 8.0 14.5 0.00 0.00 0.00 86 1008.4
20260506123719 16 249 6.4 9.7 0.00 0.00 0.00 86 1008.3
20260506123218 16 61 11.3 11.3 0.00 0.00 0.00 86 1008.5
20260506122715 15 135 3.2 4.8 0.00 0.00 0.00 87 1008.2
20260506122212 15 225 4.8 9.7 0.00 0.00 0.00 86 1008.5
20260506121710 15 39 4.8 12.9 0.00 0.00 0.00 87 1008.3
20260506121206 15 40 0.0 8.0 0.00 0.00 0.00 87 1008.7
20260506120704 15 42 4.8 14.5 0.00 0.00 0.00 87 1008.3
20260506120201 15 180 3.2 9.7 0.00 0.00 0.00 88 1008.0
20260506115659 15 90 0.0 4.8 0.00 0.00 0.00 88 1008.3
20260506115157 15 147 3.2 19.3 0.00 0.00 0.00 87 1008.3
20260506114654 15 246 3.2 4.8 0.00 0.00 0.00 87 1008.3
20260506114152 15 348 4.8 12.9 0.00 0.00 0.00 88 1008.3
20260506113651 15 225 6.4 8.0 0.00 0.00 0.00 87 1008.2
20260506113147 15 261 0.0 12.9 0.00 0.00 0.00 88 1008.6
20260506112643 15 220 4.8 9.7 0.00 0.00 0.00 88 1008.5
20260506112141 15 199 4.8 6.4 0.00 0.00 0.00 88 1008.3
20260506111639 15 165 3.2 6.4 0.00 0.00 0.00 89 1008.1
20260506111136 15 241 3.2 8.0 0.00 0.00 0.00 89 1008.2
20260506110633 14 200 1.6 8.0 0.00 0.00 0.00 90 1008.3
20260506110131 14 54 4.8 4.8 0.00 0.00 0.00 90 1008.6
20260506105627 14 3 4.8 4.8 0.00 0.00 0.00 91 1008.6
20260506105124 13 160 4.8 11.3 0.00 0.00 0.00 91 1008.5
20260506104623 13 123 6.4 9.7 0.00 0.00 0.00 92 1008.5
20260506104120 13 113 4.8 4.8 0.00 0.00 0.00 92 1008.5
20260506103617 13 90 1.6 3.2 0.00 0.00 0.00 92 1008.5
20260506103114 13 172 0.0 3.2 0.00 0.00 0.00 92 1008.7
20260506102612 13 120 4.8 4.8 0.00 0.00 0.00 92 1008.5
20260506102109 13 109 0.0 3.2 0.00 0.00 0.00 92 1008.4
20260506101606 13 125 3.2 4.8 0.00 0.00 0.00 92 1008.2
20260506101102 13 90 3.2 3.2 0.00 0.00 0.00 92 1008.2
20260506100601 13 90 0.0 3.2 0.00 0.00 0.00 92 1008.3
20260506100058 13 151 0.0 4.8 0.00 0.00 0.00 92 1008.2
20260506095557 13 126 1.6 3.2 0.00 0.00 0.00 91 1008.1
20260506095053 13 180 1.6 3.2 0.00 0.00 0.00 90 1008.3
20260506094551 13 187 0.0 4.8 0.00 0.00 0.00 90 1008.4
20260506094049 13 103 0.0 8.0 0.00 0.00 0.00 90 1008.1
20260506093547 13 270 0.0 4.8 0.00 0.00 0.00 90 1008.1
20260506093044 13 227 4.8 4.8 0.00 0.00 0.00 89 1008.0
20260506092542 13 270 3.2 11.3 0.00 0.00 0.00 89 1008.3
20260506092038 13 12 0.0 4.8 0.00 0.00 0.00 89 1007.9
20260506091537 13 252 8.0 8.0 0.00 0.00 0.00 89 1008.4
20260506091033 13 180 3.2 6.4 0.00 0.00 0.00 89 1008.2
20260506090531 13 120 1.6 8.0 0.00 0.00 0.00 88 1008.2
20260506090027 14 251 1.6 9.7 0.00 0.00 0.00 88 1008.2
20260506085524 14 207 4.8 8.0 0.00 0.00 0.00 88 1008.4
20260506085021 14 84 3.2 14.5 0.00 0.00 0.00 88 1008.2
20260506084518 14 180 0.0 4.8 0.00 0.00 0.00 87 1008.2
20260506084014 14 60 0.0 4.8 0.00 0.00 0.00 87 1008.2
20260506083511 14 209 1.6 9.7 0.00 0.00 0.00 87 1008.2
20260506083009 14 282 0.0 9.7 0.00 0.00 0.00 86 1008.2
20260506082505 14 229 4.8 8.0 0.00 0.00 0.00 86 1008.2
20260506082001 14 188 0.0 9.7 0.00 0.00 0.00 86 1008.1
20260506081459 15 354 0.0 11.3 0.00 0.00 0.00 86 1008.3
20260506080956 15 231 6.4 11.3 0.00 0.00 0.00 85 1008.3
20260506080453 15 332 3.2 8.0 0.00 0.00 0.00 85 1008.2
20260506073437 15 23 1.6 8.0 0.00 0.00 0.00 85 1008.1
20260506072935 15 346 0.0 6.4 0.00 0.00 0.00 84 1008.1
20260506072431 15 207 4.8 9.7 0.00 0.00 0.00 84 1008.3
20260506071929 15 156 3.2 4.8 0.00 0.00 0.00 83 1008.2
20260506071427 15 37 6.4 6.4 0.00 0.00 0.00 83 1008.1
20260506070924 15 117 3.2 8.0 0.00 0.00 0.00 83 1008.1
20260506070421 15 215 4.8 6.4 0.00 0.00 0.00 82 1008.4
20260506062358 16 114 1.6 4.8 0.00 0.00 0.00 80 1008.1
20260506061854 16 156 4.8 8.0 0.00 0.00 0.00 80 1008.3
20260506061351 16 206 4.8 9.7 0.00 0.00 0.00 80 1008.1
20260506060849 16 54 6.4 6.4 0.00 0.00 0.00 79 1007.9
20260506060346 16 140 0.0 6.4 0.00 0.00 0.00 79 1008.1
20260506051318 16 110 3.2 4.8 0.00 0.00 0.00 75 1008.1
20260506050816 16 14 3.2 6.4 0.00 0.00 0.00 74 1008.3
20260506050313 16 36 0.0 3.2 0.00 0.00 0.00 74 1008.1
20260506044804 16 0 8.0 11.3 0.00 0.00 0.00 73 1008.2
20260506044301 16 83 1.6 9.7 0.00 0.00 0.00 73 1008.3
20260506043758 17 198 4.8 8.0 0.00 0.00 0.00 73 1008.4
20260506043255 17 176 3.2 6.4 0.00 0.00 0.00 73 1008.2
20260506042754 17 14 3.2 4.8 0.00 0.00 0.00 73 1008.0
20260506042253 17 231 0.0 8.0 0.00 0.00 0.00 72 1008.2
20260506041751 17 66 1.6 6.4 0.00 0.00 0.00 72 1008.3
20260506041247 17 160 8.0 11.3 0.00 0.00 0.00 72 1008.3
20260506040745 17 196 4.8 8.0 0.00 0.00 0.00 72 1008.4
20260506040242 17 131 0.0 4.8 0.00 0.00 0.00 72 1008.4
20260506035738 17 330 4.8 4.8 0.00 0.00 0.00 72 1008.4
20260506035236 17 127 3.2 6.4 0.00 0.00 0.00 72 1008.5
20260506034732 17 191 3.2 8.0 0.00 0.00 0.00 71 1008.2
20260506034230 17 90 0.0 3.2 0.00 0.00 0.00 71 1008.3
20260506033727 17 175 4.8 9.7 0.00 0.00 0.00 71 1008.4
20260506033224 17 192 0.0 6.4 0.00 0.00 0.00 71 1008.5
20260506032721 17 95 3.2 4.8 0.00 0.00 0.00 71 1008.4
20260506032217 17 210 3.2 6.4 0.00 0.00 0.00 71 1008.5
20260506031714 17 171 8.0 8.0 0.00 0.00 0.00 70 1008.5
20260506031212 17 180 1.6 8.0 0.00 0.00 0.00 70 1008.4
20260506030710 17 120 8.0 8.0 0.00 0.00 0.00 69 1008.4
20260506030207 17 231 4.8 12.9 0.00 0.00 0.00 69 1008.5
20260506025703 17 132 3.2 11.3 0.00 0.00 0.00 69 1008.3
20260506025200 17 119 6.4 11.3 0.00 0.00 0.00 68 1008.2
20260506024657 17 195 0.0 14.5 0.00 0.00 0.00 68 1008.5
20260506024153 17 244 6.4 6.4 0.00 0.00 0.00 68 1008.2
20260506023650 17 15 1.6 9.7 0.00 0.00 0.00 67 1008.4
20260506023147 18 90 1.6 11.3 0.00 0.00 0.00 66 1008.1
20260506022644 18 146 3.2 8.0 0.00 0.00 0.00 66 1008.1
20260506022141 17 356 3.2 9.7 0.00 0.00 0.00 66 1008.1
20260506021639 17 62 6.4 8.0 0.00 0.00 0.00 66 1008.1
20260506021136 18 270 1.6 14.5 0.00 0.00 0.00 66 1008.0
20260506020633 17 217 3.2 4.8 0.00 0.00 0.00 66 1008.2
20260506020131 17 203 17.7 17.7 0.00 0.00 0.00 66 1008.2
20260506015628 18 216 4.8 9.7 0.00 0.00 0.00 65 1008.3
20260506015125 17 129 3.2 6.4 0.00 0.00 0.00 66 1008.1
20260506014623 18 55 4.8 8.0 0.00 0.00 0.00 65 1007.9
20260506014118 18 74 3.2 4.8 0.00 0.00 0.00 65 1008.1
20260506013617 18 189 3.2 6.4 0.00 0.00 0.00 65 1008.0
20260506013113 18 112 3.2 4.8 0.00 0.00 0.00 65 1007.7
20260506012609 18 36 4.8 4.8 0.00 0.00 0.00 65 1008.0
20260506012106 18 85 0.0 8.0 0.00 0.00 0.00 64 1007.7
20260506011604 18 208 4.8 4.8 0.00 0.00 0.00 65 1007.7
20260506011100 18 153 0.0 6.4 0.00 0.00 0.00 65 1007.5
20260506010559 18 232 0.0 4.8 0.00 0.00 0.00 64 1007.7
20260506010056 18 263 9.7 12.9 0.00 0.00 0.00 64 1007.6
20260506005553 18 163 6.4 12.9 0.00 0.00 0.00 64 1007.6
20260506005048 18 115 6.4 6.4 0.00 0.00 0.00 64 1007.4
20260506004546 18 188 0.0 9.7 0.00 0.00 0.00 63 1007.5
20260506004043 19 166 3.2 11.3 0.00 0.00 0.00 63 1007.2
20260506003539 19 246 0.0 9.7 0.00 0.00 0.00 63 1007.2
20260506003035 19 99 0.0 9.7 0.00 0.00 0.00 63 1007.1
20260506002531 19 94 3.2 9.7 0.00 0.00 0.00 63 1007.1
20260506002027 19 84 0.0 9.7 0.00 0.00 0.00 63 1006.9
20260506001524 20 186 0.0 11.3 0.00 0.00 0.00 62 1006.9
20260506001021 20 71 3.2 9.7 0.00 0.00 0.00 62 1006.8
20260506000519 20 8 0.0 16.1 0.00 0.00 0.00 62 1006.7
20260506000016 20 148 0.0 8.0 0.00 0.00 0.00 62 1006.6
20260505235514 20 223 8.0 24.1 0.00 0.00 0.00 61 1006.6
20260505235010 20 323 4.8 12.9 0.00 0.00 0.00 61 1006.4
20260505234508 20 208 4.8 14.5 0.00 0.00 0.00 61 1006.3
20260505234004 20 350 0.0 17.7 0.00 0.00 0.00 60 1006.3
20260505233502 20 347 4.8 12.9 0.00 0.00 0.00 60 1006.4
20260505232959 20 222 4.8 14.5 0.00 0.00 0.00 60 1006.3
20260505232457 20 172 9.7 14.5 0.00 0.00 0.00 60 1006.0
20260505231954 20 127 3.2 14.5 0.00 0.00 0.00 59 1006.0